Tümü
Bronzewing Airport (Lake Darlot Western Australia) YBWG Hava Durumu
There is no TAF data available at YBWG or any nearby airports.
There is no METAR data available at YBWG. Showing METAR data for YMNE (30 mi B).
Yakın zamandaki WME METAR geçmişi (YBWG verisi yok)
| Date | Time (AWST) | Flight Rules | Wind Dir. | Speed | Type | Height AGL (ft) | Visibility | Temp (°C) | Temp (°F) | Dew Point (°C) | Dew Point (°F) | Rel. Humid. | Pressure | Density Altitude | Remarks |
|---|---|---|---|---|---|---|---|---|---|---|---|---|---|---|---|
| 03-May | 04:00 | VFR | 150° | 6 kt | 10000 meters | 9° | 48° | 3° | 37° | 66% | 1022 mb | 1.050 ft | |||
| 03-May | 03:00 | VFR | 150° | 4 kt | 10000 meters | 8° | 46° | 2° | 35° | 66% | 1022 mb | 930 ft | |||
| 03-May | 02:00 | VFR | 150° | 3 kt | 10000 meters | 9° | 48° | 2° | 35° | 61% | 1022 mb | 1.050 ft | |||
| 03-May | 01:00 | VFR | 150° | 5 kt | 10000 meters | 10° | 50° | 3° | 37° | 62% | 1022 mb | 1.170 ft | |||
| 03-May | 00:00 | VFR | 150° | 7 kt | 10000 meters | 12° | 53° | 2° | 35° | 50% | 1022 mb | 1.410 ft | |||
| 02-May | 23:00 | VFR | 150° | 8 kt | 10000 meters | 12° | 53° | 2° | 35° | 50% | 1022 mb | 1.410 ft | |||
| 02-May | 22:00 | VFR | 160° | 6 kt | 10000 meters | 12° | 53° | 2° | 35° | 50% | 1022 mb | 1.410 ft | |||
| 02-May | 21:00 | VFR | 160° | 9 kt | 10000 meters | 13° | 55° | 2° | 35° | 47% | 1022 mb | 1.530 ft | |||
| 02-May | 20:00 | VFR | 160° | 9 kt | 10000 meters | 14° | 57° | 1° | 33° | 41% | 1022 mb | 1.650 ft | |||
| 02-May | 19:00 | VFR | 160° | 7 kt | 10000 meters | 15° | 59° | 0° | 32° | 36% | 1021 mb | 1.799 ft | |||
| 02-May | 18:00 | VFR | 160° | 7 kt | 10000 meters | 15° | 59° | 0° | 32° | 36% | 1020 mb | 1.829 ft | |||
| 02-May | 17:00 | VFR | 150° | 10 kt | 10000 meters | 17° | 62° | -1° | 30° | 29% | 1020 mb | 2.069 ft | |||
| 02-May | 16:00 | VFR | 150° | 10 kt | 10000 meters | 17° | 62° | -2° | 28° | 27% | 1020 mb | 2.069 ft | |||
| 02-May | 15:00 | VFR | 130° | 10 kt | 10000 meters | 18° | 64° | -2° | 28° | 26% | 1020 mb | 2.189 ft | |||
| 02-May | 14:00 | VFR | 130° | 9 kt | 10000 meters | 17° | 62° | -1° | 30° | 29% | 1020 mb | 2.069 ft | |||
| 02-May | 13:00 | VFR | 180° | 9 kt | 10000 meters | 17° | 62° | 0° | 32° | 32% | 1021 mb | 2.039 ft | |||
| 02-May | 12:00 | VFR | 140° | 11 kt | 10000 meters | 16° | 60° | 1° | 33° | 36% | 1022 mb | 1.890 ft | |||
| 02-May | 11:00 | VFR | 120° | 10 kt | 10000 meters | 15° | 59° | 0° | 32° | 36% | 1022 mb | 1.770 ft | |||
| 02-May | 10:00 | VFR | 140° | 11 kt | 10000 meters | 13° | 55° | 0° | 32° | 41% | 1023 mb | 1.500 ft | |||
| 02-May | 09:00 | VFR | 140° | 13 kt | 10000 meters | 12° | 53° | 0° | 32° | 44% | 1023 mb | 1.380 ft | |||
| 02-May | 08:00 | VFR | 140° | 12 kt | 10000 meters | 10° | 50° | 1° | 33° | 53% | 1023 mb | 1.140 ft | |||
| 02-May | 07:00 | VFR | 160° | 9 kt | 10000 meters | 8° | 46° | 0° | 32° | 57% | 1022 mb | 930 ft | |||
| 02-May | 06:00 | VFR | 150° | 10 kt | 10000 meters | 8° | 46° | -1° | 30° | 53% | 1021 mb | 959 ft | |||
| 02-May | 05:00 | VFR | 160° | 12 kt | 10000 meters | 8° | 46° | -1° | 30° | 53% | 1021 mb | 959 ft |
Giriş
| Tarayıcınız desteklenmiyor. tarayıcınızı yükseltin |
